User: anonymous   Login
Location: Unspecified
(0.0000°N, 0.0000°E)
Time: 16:37:05
(UTC+00:00)
Language:

COSMOS-2408 - Orbit

View from above orbital plane
View from above orbital plane
View from above satellite
View from above satellite

Ground track
Ground track

The orbit data is extracted from the following two-line orbital elements,

1 28419U 04037A   17204.95669460 -.00000007 +00000-0 -11901-3 0  9991
2 28419 082.4829 201.7677 0015364 187.9105 172.1746 12.45607839583413
Epoch (UTC): 23 July 2017 22:57:38
Eccentricity: 0.0015364
inclination: 82.4829°
perigee height: 1471 km
apogee height: 1495 km
right ascension of ascending node: 201.7677°
argument of perigee: 187.9105°
revolutions per day: 12.45607839
mean anomaly at epoch: 172.1746°
orbit number at epoch: 58341

The dashed part of the orbit path shows where the satellite is in the earth's shadow,  

DLR